Burbank, CA

6:14 PM PDT on July 27, 2017 (GMT -0700)
Burbank-Glendale-Pasadena

Weather History for KBUR - January, 2014

Change the Weather History Date:

Sunday, January 26, 2014

  Actual Average Record
Temperature  
Mean Temperature 62 °F 55 °F  
Max Temperature 71 °F 68 °F 84 °F (2012)
Min Temperature 53 °F 42 °F 30 °F (1944)
Degree Days  
Heating Degree Days 3 10  
Month to date heating degree days 52 266  
Since 1 July heating degree days 350 833  
Cooling Degree Days 0 0  
Month to date cooling degree days 37 0  
Year to date cooling degree days 37 0  
Growing Degree Days 12 (Base 50)    
Moisture  
Dew Point 39 °F    
Average Humidity 44    
Maximum Humidity 60    
Minimum Humidity 28    
Precipitation  
Precipitation 0.00 in 0.11 in 4.06 in (1956)
Month to date precipitation T 2.91  
Year to date precipitation T 2.91  
Since 1 July precipitation 0.43  
Sea Level Pressure  
Sea Level Pressure 30.05 in    
Wind  
Wind Speed 3 mph (South)    
Max Wind Speed 10 mph    
Max Gust Speed 13 mph    
Visibility 10 miles    
Events      
T = Trace of Precipitation, MM = Missing Value Source: NWS Daily Summary

Daily Weather History Graph

Daily Weather History Graph

Search for Another Location

Airport or City:

Trip Planner

Search our weather history database for the weather conditions in past years. The results will help you decide how hot, cold, wet, or windy it might be!

Date:

Astronomy

Jan. 26, 2014 Rise Set
Actual Time 6:54 AM PST 5:17 PM PST
Civil Twilight 6:27 AM PST 5:44 PM PST
Nautical Twilight 5:57 AM PST 6:14 PM PST
Astronomical Twilight 5:27 AM PST 6:44 PM PST
Moon 2:36 AM PST (1/26) 1:12 PM PST (1/26)
Length of Visible Light 11h 16m
Length of Day
10h 23m
Waning Crescent, 23% of the Moon is Illuminated
Jan 26
Waning Crescent
Jan 30
New
Feb 6
First Quarter
Feb 14
Full
Feb 22
Last Quarter

Hourly Weather History & Observations

Time (PST) Temp. Dew Point Humidity Pressure Visibility Wind Dir Wind Speed Gust Speed Precip Events Conditions
12:53 AM 57.9 °F 39.9 °F 51% 30.09 in 10.0 mi North 3.5 mph - N/A   Clear
1:53 AM 55.0 °F 35.1 °F 47% 30.08 in 10.0 mi Calm Calm - N/A   Clear
2:53 AM 55.0 °F 30.9 °F 40% 30.09 in 10.0 mi West 3.5 mph - N/A   Clear
3:53 AM 54.0 °F 34.0 °F 47% 30.08 in 10.0 mi Calm Calm - N/A   Clear
4:53 AM 54.0 °F 35.1 °F 49% 30.07 in 10.0 mi Calm Calm - N/A   Clear
5:53 AM 53.1 °F 34.0 °F 48% 30.08 in 10.0 mi Calm Calm - N/A   Clear
6:53 AM 54.0 °F 35.1 °F 49% 30.10 in 10.0 mi Calm Calm - N/A   Clear
7:53 AM 55.0 °F 35.1 °F 47% 30.12 in 10.0 mi Calm Calm - N/A   Clear
8:53 AM 60.1 °F 35.1 °F 39% 30.12 in 10.0 mi Calm Calm - N/A   Clear
9:53 AM 63.0 °F 37.9 °F 40% 30.12 in 10.0 mi South 4.6 mph - N/A   Mostly Cloudy
10:53 AM 66.9 °F 36.0 °F 32% 30.11 in 10.0 mi Calm Calm - N/A   Overcast
11:53 AM 70.0 °F 35.1 °F 28% 30.07 in 10.0 mi SW 3.5 mph - N/A   Scattered Clouds
12:53 PM 70.0 °F 37.0 °F 30% 30.03 in 10.0 mi SE 9.2 mph - N/A   Scattered Clouds
1:53 PM 69.1 °F 43.0 °F 39% 30.02 in 10.0 mi SSW 6.9 mph - N/A   Overcast
2:53 PM 69.1 °F 39.9 °F 35% 30.00 in 10.0 mi South 6.9 mph - N/A   Overcast
3:53 PM 66.9 °F 43.0 °F 42% 29.99 in 10.0 mi South 5.8 mph - N/A   Overcast
4:53 PM 66.0 °F 45.0 °F 47% 30.00 in 10.0 mi South 4.6 mph - N/A   Overcast
5:53 PM 64.9 °F 45.0 °F 48% 30.01 in 10.0 mi SE 4.6 mph - N/A   Overcast
6:53 PM 64.0 °F 44.1 °F 48% 30.01 in 10.0 mi SE 4.6 mph - N/A   Partly Cloudy
7:53 PM 63.0 °F 48.0 °F 58% 30.01 in 10.0 mi Calm Calm - N/A   Clear
8:53 PM 61.0 °F 46.0 °F 58% 30.02 in 10.0 mi Calm Calm - N/A   Clear
9:53 PM 60.1 °F 46.0 °F 60% 30.02 in 10.0 mi Calm Calm - N/A   Clear
10:53 PM 60.1 °F 43.0 °F 53% 30.04 in 10.0 mi NNW 4.6 mph - N/A   Overcast
11:53 PM 60.1 °F 44.1 °F 55% 30.03 in 10.0 mi Calm Calm - N/A   Overcast